Overview Statistics Trail Chart Weather Telemetry Raw packets
 

This is the latest recevied weather packets stored in our database for station/object N6GPM. If no packets are shown the sender has not sent any weather packets the latest 10 day(s).

<< 86 87 88 89 90 91 92 >>
Time Temp. Humidity Pressure Rain* Wind** Luminosity Snow
1788047366 35° C 26% 1014.8 hPa 0 mm - 420 W/m² -
1788047056 35° C 27% 1014.9 hPa 0 mm - 444 W/m² -
1788046755 35° C 27% 1014.9 hPa 0 mm - 464 W/m² -
1788046449 35° C 27% 1014.9 hPa 0 mm - 482 W/m² -
1788046148 35° C 27% 1014.9 hPa 0 mm - 507 W/m² -
1788045843 35° C 26% 1015 hPa 0 mm - 526 W/m² -
1788045538 35° C 26% 1015.2 hPa 0 mm - 546 W/m² -
1788045234 35° C 27% 1014.9 hPa 0 mm - 563 W/m² -
1788044928 35° C 26% 1014.9 hPa 0 mm - 586 W/m² -
1788044622 35.56° C 27% 1014.9 hPa 0 mm - 605 W/m² -
1788044321 35° C 27% 1015 hPa 0 mm - 625 W/m² -
1788044017 35° C 28% 1015.2 hPa 0 mm - 648 W/m² -
1788043713 35° C 27% 1015.2 hPa 0 mm - 666 W/m² -
1788043408 35.56° C 25% 1015.3 hPa 0 mm - 675 W/m² -
1788043107 35° C 26% 1015 hPa 0 mm - 694 W/m² -
1788042803 35° C 26% 1015.4 hPa 0 mm - 705 W/m² -
1788042501 35° C 25% 1015.5 hPa 0 mm - 727 W/m² -
1788042196 35.56° C 26% 1015.6 hPa 0 mm - 743 W/m² -
1788041893 35.56° C 24% 1015.6 hPa 0 mm - 762 W/m² -
1788041582 35.56° C 27% 1015.6 hPa 0 mm - 777 W/m² -
1788041281 35.56° C 27% 1015.7 hPa 0 mm - 792 W/m² -
1788040981 36.11° C 26% 1015.8 hPa 0 mm - 797 W/m² -
1788040679 36.11° C 25% 1015.9 hPa 0 mm - 818 W/m² -
1788040374 36.11° C 25% 1015.8 hPa 0 mm - 827 W/m² -
1788040069 35.56° C 26% 1016 hPa 0 mm - 834 W/m² -

* Rain latest hour (hover to see other rain measurements)
** Current wind speed in m/s (hover to see current wind gust speed)